RS-30
1 32953U 08025A 14023.75684179 .00000010 00000-0 00000 0 0 5855
2 32953 082.5048 291.0241 0019270 109.0512 251.2658 12.43041810257318
METEOR-M
1 35865U 09049A 14023.76083862 -.00000021 00000-0 97884-5 0 1930
2 35865 098.5724 075.4091 0002625 137.0208 223.1177 14.21905372225811
RS-38
1 35869U 09049E 14023.75466792 .00000052 00000-0 42825-4 0 1432
2 35869 098.5654 075.2494 0004941 147.6699 212.4784 14.22173852225845
JUGNU
1 37839U 11058B 14021.50362170 .00000420 00000-0 82712-4 0 5476
2 37839 019.9628 063.8946 0018887 167.5977 305.3306 14.12234897117793
SRMSAT
1 37841U 11058D 14022.28081015 .00000387 00000-0 68219-4 0 5468
2 37841 019.9731 075.5863 0011925 121.0394 321.2154 14.10290267117736
RAX-2
1 37853U 11061D 14023.79289660 .00004936 00000-0 35958-3 0 7041
2 37853 101.7091 344.9900 0226313 113.5913 308.1380 14.86355012121187
AUBIESAT
1 37854U 11061E 14023.50283398 .00005600 00000-0 39659-3 0 6896
2 37854 101.7134 345.9555 0225337 112.3381 010.0574 14.87339086121171
HRBE
1 37855U 11061F 14022.88364640 .00004846 00000-0 34749-3 0 6994
2 37855 101.7135 344.6069 0226820 114.9911 312.4529 14.86839639121069
RS-39
1 38051U 11062C 14023.88674132 .00019140 00000-0 44297-3 0 1857
2 38051 051.6315 219.0989 0006127 343.5920 155.1526 15.42464662111716
E-STAR
1 38079U 12006C 14023.16994855 .00062263 38978-5 99357-3 0 7198
2 38079 069.4664 004.4902 0500088 200.9363 293.2358 14.75480544101834
GOLIAT
1 38085U 12006J 14023.77470941 .00054682 37248-5 88215-3 0 7463
2 38085 069.4729 007.4091 0515580 202.2850 231.8852 14.72050711101804
HORYU-2
1 38340U 12025D 14023.86199015 .00001606 00000-0 26562-3 0 7396
2 38340 098.2448 338.8564 0011472 277.0399 082.9517 14.71713244 90560
RS-40
1 38735U 12041C 14023.59349857 .00000024 00000-0 10000-3 0 4674
2 38735 082.4776 017.6994 0015985 205.8881 154.1401 12.42556334 67620
PROITERES
1 38756U 12047B 14023.81425535 .00000656 00000-0 10638-3 0 5114
2 38756 098.2353 109.7434 0013654 120.5084 239.7470 14.74595359 73901
BEESAT-3
1 39134U 13015E 14022.90667623 .00004219 00000-0 32706-3 0 4800
2 39134 064.8766 237.5292 0013220 331.2215 028.8173 15.02658892 41813
BEESAT-2
1 39136U 13015G 14023.85770251 .00005900 00000-0 44230-3 0 4723
2 39136 064.8756 234.6656 0014352 331.1434 028.9394 15.02377423 41954
CAPE-2
1 39380U 13064A 14023.83442794 .00004088 00000-0 18630-3 0 710
2 39380 040.5163 233.3439 0003579 017.2774 342.8273 15.21494539 9879
TRLBLAZER
1 39382U 13064C 14023.88269528 .00029045 00000-0 11306-2 0 812
2 39382 040.5016 231.8774 0003641 277.9605 082.1407 15.25352916 9881
ZACUBE-1
1 39417U 13066B 14023.74469682 .00001095 00000-0 15629-3 0 1922
2 39417 097.7925 099.2889 0063483 353.0721 006.9606 14.77349692 9362
TRITON-1
1 39427U 13066M 14022.78590434 .00000841 00000-0 15076-3 0 525
2 39427 097.7828 097.1130 0119990 353.5093 006.4544 14.64747903 9104
DELFIN3XT
1 39428U 13066N 14023.78382316 .00001419 00000-0 25778-3 0 561
2 39428 097.7817 097.8059 0131016 350.5181 009.3548 14.62269037 9222
GOMX-1
1 39430U 13066Q 14023.77045984 .00000791 00000-0 16043-3 0 1603
2 39430 097.7768 097.2020 0158611 351.4076 008.4427 14.56204783 9197
$50SAT
1 39436U 13066W 14022.96840040 .00007939 00000-0 92660-3 0 637
2 39436 097.7938 099.2396 0030272 009.4745 350.7005 14.85103098 9289
PUCPSAT-1
1 39442U 13066AC 14023.75916934 .00001845 00000-0 22046-3 0 471
2 39442 097.7952 100.0620 0035929 001.8444 358.2853 14.84969304 8180
